CW9991 Weather Reports


Display with metric or nautical units.
time (UTC)temp
F
wind
direction
speed
MPH
gust
MPH
rain 1hr
in
rain 24hr
in
rain mn
in
humidity
%
barometer
mb
20260502152015 61 24 0.0 0.0 0.00 0.00 0.00 29 1020.6
20260502151026 59 117 0.0 3.0 0.00 0.00 0.00 29 1020.6
20260502123036 50 135 0.0 4.0 0.00 0.00 0.00 38 1019.9
20260502122025 50 126 1.0 4.0 0.00 0.00 0.00 37 1019.9
20260502121037 50 131 1.0 5.0 0.00 0.00 0.00 38 1019.8
20260502115051 50 120 2.0 6.0 0.00 0.00 0.00 38 1019.9
20260502114021 50 122 1.0 4.0 0.00 0.00 0.00 39 1019.9
20260502113025 50 104 1.0 6.0 0.00 0.00 0.00 39 1020.0
20260502112017 50 122 1.0 3.0 0.00 0.00 0.00 39 1020.0
20260502111028 50 101 0.0 4.0 0.00 0.00 0.00 39 1020.1
20260502110012 50 109 1.0 4.0 0.00 0.00 0.00 39 1020.1
20260502105024 50 125 0.0 3.0 0.00 0.00 0.00 41 1020.1
20260502104036 50 114 0.0 0.0 0.00 0.00 0.00 42 1020.1
20260502103018 50 114 0.0 3.0 0.00 0.00 0.00 42 1020.1
20260502102051 50 110 1.0 6.0 0.00 0.00 0.00 43 1020.1
20260502101021 49 94 1.0 5.0 0.00 0.00 0.00 46 1020.0
20260502091012 51 130 0.0 1.0 0.00 0.00 0.00 45 1019.8
20260502071018 52 117 0.0 4.0 0.00 0.00 0.00 43 1019.6
20260502070030 52 189 0.0 0.0 0.00 0.00 0.00 45 1019.7
20260502065041 52 194 0.0 0.0 0.00 0.00 0.00 45 1019.7
20260502064024 52 112 0.0 0.0 0.00 0.00 0.00 44 1019.5
20260502063015 51 111 0.0 0.0 0.00 0.00 0.00 46 1019.7
20260502062026 51 109 0.0 0.0 0.00 0.00 0.00 46 1019.6
20260502061030 52 156 0.0 0.0 0.00 0.00 0.00 46 1019.6
20260502060022 52 154 0.0 0.0 0.00 0.00 0.00 46 1019.5
20260502055033 53 158 0.0 0.0 0.00 0.00 0.00 45 1019.5
20260502054018 53 158 0.0 0.0 0.00 0.00 0.00 45 1019.5
20260502053028 53 159 0.0 0.0 0.00 0.00 0.00 45 1019.5
20260502052100 54 160 0.0 0.0 0.00 0.00 0.00 45 1019.5
20260502051023 53 158 0.0 0.0 0.00 0.00 0.00 45 1019.4
20260502050014 54 164 0.0 0.0 0.00 0.00 0.00 45 1019.4
20260502045019 54 164 0.0 0.0 0.00 0.00 0.00 45 1019.4
20260502044029 54 164 0.0 0.0 0.00 0.00 0.00 45 1019.4
20260502043040 54 164 0.0 1.0 0.00 0.00 0.00 44 1019.3
20260502042031 54 213 0.0 0.0 0.00 0.00 0.00 46 1019.2
20260502041035 55 265 0.0 0.0 0.00 0.00 0.00 46 1019.2
20260502040025 55 264 0.0 0.0 0.00 0.00 0.00 45 1019.1
20260502035016 56 265 0.0 0.0 0.00 0.00 0.00 42 1019.0
20260502034027 57 266 0.0 0.0 0.00 0.00 0.00 43 1018.9
20260502033038 57 268 0.0 0.0 0.00 0.00 0.00 41 1018.9
20260502032022 58 268 0.0 0.0 0.00 0.00 0.00 42 1018.8
20260502031034 58 268 0.0 0.0 0.00 0.00 0.00 40 1018.6
20260502030018 59 269 0.0 0.0 0.00 0.00 0.00 40 1018.4
20260502025030 59 271 0.0 0.0 0.00 0.00 0.00 41 1018.3
20260502024014 59 270 0.0 0.0 0.00 0.00 0.00 41 1018.3
20260502023026 60 271 0.0 0.0 0.00 0.00 0.00 40 1018.2
20260502022038 61 272 0.0 1.0 0.00 0.00 0.00 39 1018.1
20260502021029 62 268 0.0 1.0 0.00 0.00 0.00 38 1018.1
20260502020033 63 359 0.0 3.0 0.00 0.00 0.00 36 1018.0
20260502015024 63 272 0.0 4.0 0.00 0.00 0.00 35 1017.9
20260502014029 64 263 2.0 6.0 0.00 0.00 0.00 34 1017.8
20260502013020 65 224 1.0 7.0 0.00 0.00 0.00 33 1017.8
20260502012031 66 278 0.0 6.0 0.00 0.00 0.00 26 1017.8
20260502011036 67 306 0.0 2.0 0.00 0.00 0.00 22 1017.7
20260502010026 67 295 0.0 2.0 0.00 0.00 0.00 22 1017.8
20260502005038 67 303 0.0 0.0 0.00 0.00 0.00 23 1017.8
20260502004027 67 304 1.0 6.0 0.00 0.00 0.00 22 1017.7
20260502003032 67 354 1.0 6.0 0.00 0.00 0.00 22 1017.9
20260502002023 67 300 1.0 5.0 0.00 0.00 0.00 22 1017.9
20260502001034 68 359 0.0 3.0 0.00 0.00 0.00 21 1017.9
20260502000019 68 290 0.0 3.0 0.00 0.00 0.00 23 1017.9
20260501235031 67 301 1.0 4.0 0.00 0.00 0.00 22 1018.0
20260501234019 67 359 0.0 5.0 0.00 0.00 0.00 24 1018.1
20260501233030 67 33 1.0 4.0 0.00 0.00 0.00 24 1018.1
20260501232015 67 23 2.0 5.0 0.00 0.00 0.00 24 1018.1
20260501231053 67 359 0.0 5.0 0.00 0.00 0.00 24 1018.2
20260501230035 67 347 2.0 6.0 0.00 0.00 0.00 24 1018.2
20260501225025 67 16 1.0 8.0 0.00 0.00 0.00 23 1018.4
20260501224035 66 33 1.0 10.0 0.00 0.00 0.00 24 1018.4
20260501223016 66 266 1.0 4.0 0.00 0.00 0.00 23 1018.6
20260501222027 66 359 0.0 7.0 0.00 0.00 0.00 24 1018.7
20260501221038 66 280 0.0 6.0 0.00 0.00 0.00 23 1018.8
20260501220049 67 335 1.0 5.0 0.00 0.00 0.00 24 1018.9
20260501215030 67 348 0.0 4.0 0.00 0.00 0.00 22 1018.9
20260501214022 66 21 0.0 4.0 0.00 0.00 0.00 23 1019.0
20260501213034 66 359 0.0 6.0 0.00 0.00 0.00 23 1019.0
20260501212017 66 297 2.0 6.0 0.00 0.00 0.00 23 1019.2
20260501211027 66 330 0.0 8.0 0.00 0.00 0.00 24 1019.2
20260501210032 65 21 0.0 6.0 0.00 0.00 0.00 24 1019.3
20260501205023 65 310 1.0 4.0 0.00 0.00 0.00 25 1019.2
20260501204034 66 359 5.0 9.0 0.00 0.00 0.00 24 1019.3
20260501203018 66 27 2.0 6.0 0.00 0.00 0.00 23 1019.2
20260501202029 65 271 1.0 5.0 0.00 0.00 0.00 19 1019.3
20260501201014 66 195 0.0 4.0 0.00 0.00 0.00 18 1019.2
20260501200025 66 21 1.0 6.0 0.00 0.00 0.00 19 1019.3
20260501195036 65 4 0.0 11.0 0.00 0.00 0.00 19 1019.4
20260501194020 66 359 2.0 7.0 0.00 0.00 0.00 19 1019.5
20260501193032 65 116 0.0 1.0 0.00 0.00 0.00 20 1019.6
20260501192015 65 202 1.0 5.0 0.00 0.00 0.00 18 1019.7
20260501191047 64 245 0.0 5.0 0.00 0.00 0.00 17 1019.7
20260501190018 64 18 0.0 4.0 0.00 0.00 0.00 21 1019.8
20260501185029 63 168 0.0 6.0 0.00 0.00 0.00 19 1019.9
20260501184034 63 200 0.0 2.0 0.00 0.00 0.00 18 1020.0
20260501183025 62 292 0.0 9.0 0.00 0.00 0.00 19 1020.1
20260501182017 63 191 0.0 8.0 0.00 0.00 0.00 18 1020.3
20260501181047 62 162 0.0 5.0 0.00 0.00 0.00 20 1020.3
20260501180058 62 147 2.0 13.0 0.00 0.00 0.00 20 1020.4
20260501175021 62 77 0.0 10.0 0.00 0.00 0.00 22 1020.5
20260501174012 62 181 3.0 10.0 0.00 0.00 0.00 21 1020.6
20260501173017 62 34 1.0 7.0 0.00 0.00 0.00 23 1020.5
20260501172028 62 20 0.0 6.0 0.00 0.00 0.00 27 1020.6
20260501171013 61 156 1.0 9.0 0.00 0.00 0.00 23 1020.8
20260501170023 61 50 0.0 8.0 0.00 0.00 0.00 27 1020.7
20260501165014 60 156 0.0 12.0 0.00 0.00 0.00 24 1020.7
20260501164046 60 99 1.0 9.0 0.00 0.00 0.00 26 1020.8
20260501163037 60 104 6.0 11.0 0.00 0.00 0.00 25 1020.9
20260501162021 59 122 5.0 12.0 0.00 0.00 0.00 25 1020.8
20260501161012 59 95 5.0 14.0 0.00 0.00 0.00 26 1020.7
20260501160016 59 133 2.0 9.0 0.00 0.00 0.00 26 1020.6
20260501155027 58 100 3.0 12.0 0.00 0.00 0.00 26 1020.6
20260501154018 58 106 3.0 10.0 0.00 0.00 0.00 27 1020.6